This is the latest recevied weather packets stored in our database for station/object W2SRH. If no packets are shown the sender has not sent any weather packets the latest 10 day(s).
| Time | Temp. | Humidity | Pressure | Rain* | Wind** | Luminosity | Snow |
|---|---|---|---|---|---|---|---|
| 1777763943 | 13.89° C | 32% | 1002.2 hPa | 0 mm | 1.79 m/s, 303° | - | - |
| 1777763343 | 15° C | 31% | 1002.2 hPa | 0 mm | 1.79 m/s, 303° | - | - |
| 1777762743 | 15° C | 30% | 1002.2 hPa | 0 mm | 1.34 m/s, 334° | - | - |
| 1777762144 | 15.56° C | 30% | 1002.1 hPa | 0 mm | 1.79 m/s, 286° | - | - |
| 1777761544 | 15.56° C | 30% | 1002 hPa | 0 mm | 2.24 m/s, 299° | - | - |
| 1777760944 | 15° C | 30% | 1001.9 hPa | 0 mm | 1.34 m/s, 313° | - | - |
| 1777760344 | 15° C | 31% | 1001.7 hPa | 0 mm | 1.79 m/s, 325° | - | - |
| 1777759744 | 15° C | 31% | 1001.8 hPa | 0 mm | 0.45 m/s, 17° | - | - |
| 1777759143 | 15.56° C | 31% | 1002 hPa | 0 mm | 0.89 m/s, 353° | - | - |
| 1777758543 | 15.56° C | 32% | 1002.2 hPa | 0 mm | 0.45 m/s, 349° | - | - |
| 1777757944 | 15° C | 33% | 1002 hPa | 0 mm | 0.45 m/s, 25° | - | - |
| 1777757347 | 15° C | 33% | 1001.8 hPa | 0 mm | 1.34 m/s, 65° | - | - |
| 1777756744 | 15.56° C | 30% | 1001.8 hPa | 0 mm | 1.79 m/s, 307° | - | - |
| 1777756143 | 15.56° C | 30% | 1001.6 hPa | 0 mm | 1.79 m/s, 311° | - | - |
| 1777755543 | 15.56° C | 32% | 1001.6 hPa | 0 mm | 1.34 m/s, 329° | - | - |
| 1777754945 | 15.56° C | 32% | 1001.5 hPa | 0 mm | 1.79 m/s, 306° | - | - |
| 1777754344 | 15.56° C | 32% | 1001.8 hPa | 0 mm | 1.34 m/s, 286° | - | - |
| 1777753743 | 15.56° C | 31% | 1001.8 hPa | 0 mm | 1.34 m/s, 305° | - | - |
| 1777753144 | 15° C | 32% | 1001.9 hPa | 0 mm | 2.68 m/s, 304° | - | - |
| 1777752543 | 15.56° C | 32% | 1002 hPa | 0 mm | 1.79 m/s, 304° | - | - |
| 1777751944 | 15.56° C | 33% | 1002.1 hPa | 0 mm | 0.89 m/s, 309° | - | - |
| 1777751344 | 16.11° C | 33% | 1002.2 hPa | 0 mm | 0.89 m/s, 330° | - | - |
| 1777750745 | 16.11° C | 32% | 1002.3 hPa | 0 mm | 1.34 m/s, 346° | - | - |
| 1777750144 | 15.56° C | 33% | 1002.5 hPa | 0 mm | 0.89 m/s, 352° | - | - |
| 1777749544 | 15° C | 34% | 1002.7 hPa | 0 mm | 0.89 m/s, 21° | - | - |
* Rain latest hour (hover to see other rain measurements)
** Current wind speed in m/s (hover to see current wind gust speed)